Location: Clyde
(45.1830°S, 169.3170°E)
Time: 22:17:23
(UTC+12:00)

Cosmos 1151 Rocket - Pass Details

Date: 24 January 2019
Orbit: 594 x 615 km, 82.5° (Epoch: 17 April)

Event Time Altitude Azimuth Distance (km) Brightness Sun altitude
Rises 21:50:11 0° 9° (N) 2,835 6.0 -5.0°
Reaches altitude 10° 21:52:26 10° 14° (NNE) 1,944 5.2 -5.3°
Maximum altitude 21:56:33 46° 87° (E) 826 3.4 -5.9°
Drops below altitude 10° 22:00:44 10° 160° (SSE) 1,983 5.9 -6.5°
Sets 22:03:02 0° 165° (SSE) 2,899 6.8 -6.9°
